Location: ?ejeti?ky
(50.4060°N, 14.9016°E)
Time: 02:47:53
(UTC+00:00)

STARLINK-1364 - Pass Details

Date: 07 June 2020
Orbit: 379 x 380 km, 53.0° (Epoch: 04 July)

Event Time Altitude Azimuth Distance (km) Brightness Sun altitude
Rises 23:57:30 0° 280° (W) 2,256 6.7 -15.7°
Reaches altitude 10° 23:59:35 10° 286° (WNW) 1,403 5.7 -15.6°
Maximum altitude 00:02:39 50° 4° (N) 493 3.8 -15.5°
Drops below altitude 10° 00:05:43 10° 82° (E) 1,402 6.0 -15.4°
Sets 00:07:48 0° 87° (E) 2,255 7.0 -15.3°
